DW6352 Weather Reports


time (UTC)temp
C
wind
direction
speed
KPH
gust
KPH
rain 1hr
cm
rain 24hr
cm
rain mn
cm
humidity
%
barometer
mb
20260903033122 22 51 4.8 9.7 0.00 0.00 0.00 68 1009.9
20260903031503 22 49 3.2 8.0 0.00 0.00 0.00 69 1009.9
20260903030127 22 43 3.2 9.7 0.00 0.00 0.00 68 1010.0
20260903024512 22 74 3.2 8.0 0.00 0.00 0.00 67 1009.9
20260903023002 23 55 4.8 9.7 0.00 0.00 0.00 67 1010.0
20260903021627 22 56 1.6 8.0 0.00 0.00 0.00 69 1009.9
20260903020012 22 43 3.2 4.8 0.00 0.00 0.00 71 1009.7
20260903014510 23 43 1.6 4.8 0.00 0.00 0.00 69 1009.3
20260903013007 22 43 3.2 6.4 0.00 0.00 0.00 72 1009.2
20260903011510 22 43 1.6 3.2 0.00 0.00 0.00 72 1009.2
20260903010008 22 43 0.0 1.6 0.00 0.00 0.00 69 1009.2
20260903004520 24 43 0.0 4.8 0.00 0.00 0.00 64 1009.2
20260903003010 26 43 1.6 8.0 0.00 0.00 0.00 57 1009.1
20260903001514 26 45 3.2 8.0 0.00 0.00 0.00 56 1009.1
20260903000132 26 64 4.8 9.7 0.00 0.00 0.00 56 1009.0
20260902234505 27 35 4.8 8.0 0.00 0.00 0.00 54 1009.2
20260902233002 27 69 1.6 8.0 0.00 0.00 0.00 59 1009.1
20260902231518 26 85 1.6 4.8 0.00 0.00 0.00 58 1009.1
20260902230139 28 53 4.8 12.9 0.00 0.00 0.00 52 1009.2
20260902224514 27 69 6.4 9.7 0.00 0.00 0.00 53 1009.2
20260902223128 28 146 3.2 8.0 0.00 0.00 0.00 50 1009.3
20260902221516 27 76 3.2 8.0 0.00 0.00 0.00 53 1009.3
20260902220006 27 300 1.6 9.7 0.00 0.00 0.00 52 1009.4
20260902214510 28 351 6.4 11.3 0.00 0.00 0.00 52 1009.2
20260902213013 28 52 4.8 12.9 0.00 0.00 0.00 52 1009.4
20260902211518 28 88 6.4 14.5 0.00 0.00 0.00 53 1009.5
20260902210010 27 48 1.6 14.5 0.00 0.00 0.00 53 1009.6
20260902204514 27 355 4.8 11.3 0.00 0.00 0.00 54 1009.6
20260902203008 27 55 1.6 9.7 0.00 0.00 0.00 55 1009.7
20260902201503 27 101 4.8 14.5 0.00 0.00 0.00 56 1009.7
20260902200021 26 20 3.2 11.3 0.00 0.00 0.00 59 1009.8
20260902194507 26 63 3.2 9.7 0.00 0.00 0.00 58 1010.0
20260902193131 27 54 6.4 14.5 0.00 0.00 0.00 59 1010.0
20260902191621 26 88 1.6 9.7 0.00 0.00 0.00 58 1010.2
20260902190004 26 54 1.6 9.7 0.00 0.00 0.00 56 1010.5
20260902184512 26 87 4.8 9.7 0.00 0.00 0.00 58 1010.7
20260902183018 26 61 4.8 9.7 0.00 0.00 0.00 60 1010.8
20260902181629 26 22 3.2 16.1 0.00 0.00 0.00 59 1010.9
20260902180008 26 112 1.6 6.4 0.00 0.00 0.00 66 1011.0
20260902174626 25 119 4.8 14.5 0.00 0.00 0.00 65 1011.0
20260902173012 25 22 1.6 9.7 0.00 0.00 0.00 65 1011.0
20260902171511 25 45 3.2 9.7 0.00 0.00 0.00 66 1011.0
20260902170011 25 40 1.6 9.7 0.00 0.00 0.00 64 1011.1
20260902164626 25 69 4.8 9.7 0.00 0.00 0.00 65 1011.1
20260902163001 23 355 6.4 9.7 0.00 0.00 0.00 69 1011.3
20260902161513 23 28 3.2 9.7 0.00 0.00 0.00 70 1011.3
20260902160010 23 121 1.6 6.4 0.00 0.00 0.00 69 1011.4
20260902154501 22 181 3.2 9.7 0.00 0.00 0.00 75 1011.6
20260902153009 22 175 3.2 8.0 0.00 0.00 0.00 75 1011.4
20260902151627 22 88 3.2 9.7 0.00 0.00 0.00 75 1011.0
20260902150007 22 124 0.0 4.8 0.00 0.00 0.00 74 1010.8
20260902144512 22 124 1.6 9.7 0.00 0.00 0.00 75 1010.9
20260902143011 21 178 4.8 11.3 0.00 0.00 0.00 78 1011.0
20260902141511 21 176 3.2 9.7 0.00 0.00 0.00 80 1011.0
20260902140015 20 185 3.2 8.0 0.00 0.00 0.00 82 1011.4
20260902134625 20 101 1.6 8.0 0.00 0.00 0.00 82 1011.6
20260902133005 19 146 0.0 6.4 0.00 0.00 0.00 84 1011.4
20260902131630 19 111 3.2 6.4 0.00 0.00 0.00 86 1011.2
20260902130014 18 126 3.2 6.4 0.00 0.00 0.00 89 1011.3
20260902124513 17 126 4.8 9.7 0.00 0.00 0.00 88 1011.5
20260902123016 17 102 3.2 9.7 0.00 0.00 0.00 89 1011.5
20260902121628 17 134 4.8 6.4 0.00 0.00 0.00 89 1011.7
20260902120146 17 161 0.0 3.2 0.00 0.00 0.00 89 1011.8
20260902114505 17 161 0.0 1.6 0.00 0.00 0.00 88 1011.8
20260902113007 17 161 0.0 3.2 0.00 0.00 0.00 88 1011.5
20260902111514 17 161 0.0 4.8 0.00 0.00 0.00 89 1011.4
20260902110134 17 167 6.4 11.3 0.00 0.00 0.00 89 1011.6
20260902104514 17 12 0.0 1.6 0.00 0.00 0.00 88 1010.7
20260902103006 17 12 0.0 1.6 0.00 0.00 0.00 87 1010.6
20260902101513 17 12 0.0 3.2 0.00 0.00 0.00 86 1010.7
20260902100010 18 12 1.6 4.8 0.00 0.00 0.00 84 1010.7
20260902094510 18 12 3.2 4.8 0.00 0.00 0.00 84 1010.4
20260902093122 18 78 0.0 4.8 0.00 0.00 0.00 84 1010.6
20260902091516 18 78 1.6 6.4 0.00 0.00 0.00 84 1010.6
20260902090122 18 163 1.6 4.8 0.00 0.00 0.00 84 1011.1
20260902084510 18 163 1.6 4.8 0.00 0.00 0.00 84 1011.3
20260902083004 18 122 3.2 6.4 0.00 0.00 0.00 83 1011.2
20260902081517 18 122 4.8 9.7 0.00 0.00 0.00 82 1011.1
20260902080124 18 126 4.8 11.3 0.00 0.00 0.00 83 1011.1
20260902074508 19 184 1.6 3.2 0.00 0.00 0.00 81 1011.0
20260902073130 19 162 3.2 9.7 0.00 0.00 0.00 82 1011.3
20260902071514 19 129 1.6 3.2 0.00 0.00 0.00 84 1011.0
20260902070012 19 129 1.6 4.8 0.00 0.00 0.00 81 1011.1
20260902064516 18 129 3.2 6.4 0.00 0.00 0.00 84 1011.5
20260902063132 18 36 0.0 3.2 0.00 0.00 0.00 82 1011.1
20260902061513 20 36 1.6 4.8 0.00 0.00 0.00 81 1010.9
20260902060018 19 36 0.0 3.2 0.00 0.00 0.00 85 1011.1
20260902054527 19 36 0.0 3.2 0.00 0.00 0.00 86 1011.5
20260902053016 19 36 0.0 3.2 0.00 0.00 0.00 86 1011.8
20260902051514 19 36 0.0 1.6 0.00 0.00 0.00 84 1011.7
20260902050126 20 36 0.0 3.2 0.00 0.00 0.00 81 1011.5
20260902044515 20 36 3.2 4.8 0.00 0.00 0.00 80 1011.3
20260902043007 21 36 3.2 6.4 0.00 0.00 0.00 80 1011.3
20260902041517 21 13 1.6 4.8 0.00 0.00 0.00 79 1011.6
20260902040009 20 306 0.0 4.8 0.00 0.00 0.00 83 1011.7
20260902034503 20 293 0.0 1.6 0.00 0.00 0.00 84 1011.8